Wild Boar Gully, Santa Catalina Island Weather observations

Data are for 10 minute period ending at time listed.
 Day   Time   Solar   Ave.   Ave.  Ave.  Vector    Max.   Stn.    Total
  of    of     Rad.   Air    Rel.  Wind   Wind     Wind   Baro.  Precip.
Year   Day            Temp.  Hum.  Speed  Dir.     Gust   Pres.         
2014   (PST)   W/m2    F      %     mph   deg.      mph    mb.     in.  
------------------------------------------------------------------------
 243    5:20    0.0    69   86.6     8     54.0    10.2    999.0   0.00  
 243    5:30    0.0    69   86.5     6     70.6     8.4    999.0   0.00  
 243    5:40    5.0    69   86.7     6     72.6     8.4    999.0   0.00  
 243    5:50    6.0    70   86.7     7     78.7    10.8    999.0   0.00  
 243    6:00   12.0    70   86.7     8     82.3    11.3    999.0   0.00  
 243    6:10   15.0    70   86.7    10     85.5    13.1    999.0   0.00  
 243    6:20   20.0    70   86.6    10     84.8    12.5    999.0   0.00  
 243    6:30   26.0    70   86.5     9     82.3    11.9    999.0   0.00  
 243    6:40   39.0    70   86.4     8     91.9    10.8    999.0   0.00  
 243    6:50   58.0    70   86.3     7     89.1    10.8    999.0   0.00  
 243    7:00   68.0    70   86.0     7     95.4    10.2    999.0   0.00  
 243    7:10  154.0    71   85.6     6    106.8     9.6    999.0   0.00  
 243    7:20   93.0    71   85.0     6    110.4    11.3    999.0   0.00  
 243    7:30  126.0    71   84.8     7    106.0    11.9    999.0   0.00  
 243    7:40  144.0    71   84.2     8    102.8    10.8    999.0   0.00  
 243    7:50  278.0    72   83.3     7    105.5    10.8    999.0   0.00  
 243    8:00  353.0    73   81.1     8    112.3    11.3    999.0   0.00  
 243    8:10  390.0    74   79.4     8    125.1    13.7    999.0   0.00  
 243    8:20  422.0    74   78.2     8    118.1    12.5    999.0   0.00  
 243    8:30  448.0    75   76.6     8    109.9    11.3    999.0   0.00  
 243    8:40  472.0    75   77.0     9    118.9    12.5    999.0   0.00  
 243    8:50  497.0    76   75.9     8    123.9    12.5    999.0   0.00  
 243    9:00  520.0    75   75.6     9    128.7    13.1    999.0   0.00  
 243    9:10  545.0    74   78.3     9    132.7    13.7    999.0   0.00  
 243    9:20  561.0    75   77.4     8    123.2    12.5    999.0   0.00  
 243    9:30  588.0    76   75.6     8    125.1    13.1    999.0   0.00  
 243    9:40  609.0    75   76.3     9    125.3    13.7    999.0   0.00  
 243    9:50  628.0    75   77.0    10    130.6    13.7    999.0   0.00  
 243   10:00  646.0    75   76.8     9    132.1    13.1    999.0   0.00  
 243   10:10  669.0    74   77.8     8    136.6    12.5    999.0   0.00  
 243   10:20  688.0    75   77.6     8    137.3    11.9    999.0   0.00  
 243   10:30  705.0    75   78.0     7    133.1    10.8    999.0   0.00  
 243   10:40  708.0    76   76.3     6    132.6    10.8    999.0   0.00  
 243   10:50  718.0    76   76.3     5    140.2    10.2    999.0   0.00  
 243   11:00  728.0    77   74.5     4    129.7     7.8    999.0   0.00  
 243   11:10  738.0    77   73.4     4    133.8     7.2    999.0   0.00  
 243   11:20  745.0    78   72.1     4    158.9     6.6    999.0   0.00  
 243   11:30  751.0    79   70.7     4    226.8     6.6    999.0   0.00  
 243   11:40  755.0    77   73.4     6    244.6     9.6    999.0   0.00  
 243   11:50  756.0    76   76.0     6    241.7     7.8    999.0   0.00  
 243   12:00  757.0    76   75.9     6    243.0     8.4    999.0   0.00  
 243   12:10  757.0    76   76.0     6    237.0     9.0    999.0   0.00  
 243   12:20  756.0    76   76.4     6    240.4    10.2    999.0   0.00  
 243   12:30  750.0    76   76.6     6    240.3     7.8    999.0   0.00  
 243   12:40  746.0    76   76.4     6    234.2     9.0    999.0   0.00  
 243   12:50  733.0    76   75.8     6    238.2     9.0    999.0   0.00  
 243   13:00  733.0    76   75.6     6    246.2     9.0    999.0   0.00  
 243   13:10  725.0    76   76.4     6    247.5     9.6    999.0   0.00  
 243   13:20  714.0    76   75.9     6    232.6     9.0    999.0   0.00  
 243   13:30  702.0    77   75.6     6    232.9     9.0    999.0   0.00  
 243   13:40  689.0    76   75.7     6    237.6     9.0    999.0   0.00  
 243   13:50  673.0    77   75.6     7    229.2     9.6    999.0   0.00  
 243   14:00  656.0    77   75.9     7    227.7     9.6    999.0   0.00  
 243   14:10  636.0    76   76.2     7    226.6    11.3    999.0   0.00  
 243   14:20  616.0    77   76.0     7    231.9     9.6    999.0   0.00  
 243   14:30  596.0    78   74.6     8    234.4    10.8    999.0   0.00  
 243   14:40  575.0    78   73.8     8    229.8    12.5    999.0   0.00  
 243   14:50  553.0    78   74.0     8    232.1    12.5    999.0   0.00  
 243   15:00  529.0    77   74.8     8    235.2    11.9    999.0   0.00  
 243   15:10  506.0    77   76.5     8    234.3    12.5    999.0   0.00  
 243   15:20  478.0    77   77.0     8    234.0    11.9    999.0   0.00  
 243   15:30  454.0    76   77.0     9    237.3    13.1    999.0   0.00  
 243   15:40  428.0    76   76.9     9    236.2    11.9    999.0   0.00  
 243   15:50  402.0    76   76.8     8    238.3    11.9    999.0   0.00  
 243   16:00  376.0    77   76.5     9    237.3    13.7    999.0   0.00  
 243   16:10  348.0    76   76.7     8    240.1    11.9    999.0   0.00  
 243   16:20  320.0    76   77.2     8    239.8    11.9    999.0   0.00  
 243   16:30  292.0    77   77.2     8    240.0    11.9    999.0   0.00  
 243   16:40  265.0    77   77.1     9    239.6    12.5    999.0   0.00  
 243   16:50  237.0    76   78.2     9    240.3    13.1    999.0   0.00  
 243   17:00  208.0    76   78.9     8    249.8    11.3    999.0   0.00  
 243   17:10  180.0    77   78.0     7    242.0    10.2    999.0   0.00  
 243   17:20  153.0    76   78.0     7    237.7    10.2    999.0   0.00  
 243   17:30  125.0    76   78.7     7    234.7    10.2    999.0   0.00  
 243   17:40   97.0    75   80.5     8    250.6    11.3    999.0   0.00  
 243   17:50   68.0    74   81.2     7    257.2     9.0    999.0   0.00  
 243   18:00   29.0    74   82.2     8    254.3    11.9    999.0   0.00  
 243   18:10   14.0    73   83.9     7    253.5    10.8    999.0   0.00  
 243   18:20    9.0    72   84.5     6    262.0     9.6    999.0   0.00  
 243   18:30    3.0    72   84.6     4    259.0     6.0    999.0   0.00  
 243   18:40    0.0    71   84.6     5    246.9     7.8    999.0   0.00  
 243   18:50    0.0    71   84.5     3    258.8     7.2    999.0   0.00  
 243   19:00    0.0    71   84.4     3    215.6     4.2    999.0   0.00  
 243   19:10    0.0    71   84.4     3    230.2     5.4    999.0   0.00  
 243   19:20    0.0    70   84.4     3    234.4     4.8    999.0   0.00  
 243   19:30    0.0    70   84.5     3    239.2     3.6    999.0   0.00  
 243   19:40    0.0    70   84.7     2    250.4     3.6    999.0   0.00  
 243   19:50    0.0    70   84.7     1    295.8     3.0    999.0   0.00  
 243   20:00    0.0    70   84.8     1    157.8     2.4    999.0   0.00  
 243   20:10    0.0    70   84.9     2    191.2     3.0    999.0   0.00  
 243   20:20    0.0    69   84.7     2     44.2     4.2    999.0   0.00  
 243   20:30    0.0    69   85.0     4     63.5     6.0    999.0   0.00  
 243   20:40    0.0    70   84.7     2     60.9     4.8    999.0   0.00  
 243   20:50    0.0    69   84.1     2    136.0     4.2    999.0   0.00  
 243   21:00    0.0    70   84.3     4    129.0     5.4    999.0   0.00  
 243   21:10    0.0    69   84.4     4    110.5     4.8    999.0   0.00  
 243   21:20    0.0    69   85.0     4    109.6     4.2    999.0   0.00  
 243   21:30    0.0    69   85.3     3    104.9     4.2    999.0   0.00  
 243   21:40    0.0    69   85.4     2     98.6     4.2    999.0   0.00  
 243   21:50    0.0    69   85.4     1    114.7     2.4    999.0   0.00  
 243   22:00    0.0    69   85.4     3    113.0     6.6    999.0   0.00  
 243   22:10    0.0    69   85.6     3    106.2     5.4    999.0   0.00  
 243   22:20    0.0    69   85.6     4    109.4     6.0    999.0   0.00  
 243   22:30    0.0    69   85.6     3    121.0     5.4    999.0   0.00  
 243   22:40    0.0    69   85.7     4    101.6     7.2    999.0   0.00  
 243   22:50    0.0    69   85.8     4    102.8     6.0    999.0   0.00  
 243   23:00    0.0    69   85.9     4    106.9     7.2    999.0   0.00  
 243   23:10    0.0    69   85.9     3    112.7     5.4    999.0   0.00  
 243   23:20    0.0    69   85.9     4     88.9     6.6    999.0   0.00  
 243   23:30    0.0    69   86.0     6     74.2     7.2    999.0   0.00  
 243   23:40    0.0    68   86.1     6     72.9     7.8    999.0   0.00  
 243   23:50    0.0    68   86.1     6     73.9     7.2    999.0   0.00  
 244    0:00    0.0    68   86.1     6     74.9     8.4    999.0   0.00  
 244    0:10    0.0    68   86.1     6     74.0     7.8    999.0   0.00  
 244    0:20    0.0    68   86.0     4     98.1     6.6    999.0   0.00  
 244    0:30    0.0    68   86.0     2    108.6     3.6    999.0   0.00  
 244    0:40    0.0    68   86.1     2     97.4     3.6    999.0   0.00  
 244    0:50    0.0    68   86.2     2    102.6     2.4    999.0   0.00  
 244    1:00    0.0    68   86.2     2    120.9     4.2    999.0   0.00  
 244    1:10    0.0    68   86.2     2    144.8     3.0    999.0   0.00  
 244    1:20    0.0    68   86.2     2    125.8     3.6    999.0   0.00  
 244    1:30    0.0    68   86.2     2    110.5     4.8    999.0   0.00  
 244    1:40    0.0    68   86.2     4    123.0     5.4    999.0   0.00  
 244    1:50    0.0    68   86.3     4    117.9     5.4    999.0   0.00  
 244    2:00    0.0    68   86.2     4    112.1     6.6    999.0   0.00  
 244    2:10    0.0    68   86.2     4    108.3     6.6    999.0   0.00  
 244    2:20    0.0    68   86.2     4     84.4     7.2    999.0   0.00  
 244    2:30    0.0    68   86.0     6     86.3     9.0    999.0   0.00  
 244    2:40    0.0    68   85.8     4    107.4     6.0    999.0   0.00  
 244    2:50    0.0    68   85.6     4    112.1     6.0    999.0   0.00  
 244    3:00    0.0    68   85.6     4    103.2     6.6    999.0   0.00  
 244    3:10    0.0    69   85.5     4    108.7     6.0    999.0   0.00  
 244    3:20    0.0    69   85.6     3    106.1     4.8    999.0   0.00  
 244    3:30    0.0    69   85.6     3    105.2     4.2    999.0   0.00  
 244    3:40    0.0    69   85.6     2     98.0     4.2    999.0   0.00  
 244    3:50    0.0    69   85.6     3    119.7     5.4    999.0   0.00  
 244    4:00    0.0    69   85.4     3     91.6     7.2    999.0   0.00  
 244    4:10    0.0    69   85.2     3     78.7     6.6    999.0   0.00  
 244    4:20    0.0    69   84.9     4     93.9     6.0    999.0   0.00  
 244    4:30    0.0    69   84.6     5     87.2     8.4    999.0   0.00  
 244    4:40    0.0    69   83.9     5     87.1     8.4    999.0   0.00  
 244    4:50    0.0    69   83.1     5    107.8     9.0    999.0   0.00  
 244    5:00    0.0    69   82.2     6     86.1     9.0    999.0   0.00  
 244    5:10    0.0    69   81.8     5     73.4     7.8    999.0   0.00  

Return to Wild Boar Gully graphs page.


Western Regional Climate Center,wrcc@dri.edu